COSMOS 1691 DEB, 20284

Orbit data source: Space-Track

COSMOS 1691 DEB, 20284 is space debris in LEO originally from a launch on Wed, 09 Oct 1985 UTC launched from the Plesetsk Missile And Space Complex (PKMTR). Debris objects in space refer to the collection of defunct objects orbiting the Earth. Examples of debris include non-operational satellites, rocket bodies, and fragments generated from explosions, collisions, or faulty payload assembly.

Loading next visibility...
Identifier
20284, 1985-094X
Orbit
LEO
Country
Flag of CISCIS
Related business
Manufacturer
Unknown
Mission
Spacecraft
Bus & Motor
Unknown
Mass
Unknown
Launch date (UTC)
1985-10-09 (40 years ago)
Launch vehicle
Unknown
Launch site
Plesetsk Missile And Space Complex (PKMTR)
Object type
Payload
Rocket body
Debris
Shape & HBR
Unknown shape, 0.1 m
Radar Cross Section
Small (<0.1 m²)

Expand to show TLE details & history
Last TLE update: 18 hours ago

TLE from 18 hours ago
0 COSMOS 1691 DEB
1 20284U 85094X   25294.86311793  .00000582  00000-0  43482-2 0  9990
2 20284  83.1883 254.9153 0237612  11.7839  15.7569 12.31534459536271
Epoch: 2025-10-21T20:42Z
TLE epoch observation values (Epoch: 2025-10-21T20:42:53.389Z)
Latitude
28.12495°
Longitude
-82.70976°
Altitude
1,365.173 km
Speed
7.26 km/s
True Right ascension
17h 14m 13s
True Declination
27° 59' 36"
Sunlit
Object was in daylight at epoch
Visualization orbit readout
Latitude
Unknown
Longitude
Unknown
Altitude
Unknown
Speed
Unknown
Apparent Right ascension
Unknown
Apparent Declination
Unknown
Sunlit
N/A
Visualization observer readout
Local Sidereal Time
10:03:47
Azimuth
Unknown
Elevation
Unknown
Doppler factor
Unknown
Orbital elements
Apogee altitude
1,728.181 km
Perigee altitude
1,351.89 km
Semi-major axis
7,918.172 km
Eccentricity
0.02376
Inclination
83.1883°
RAAN
254.9153°
Arg. of periapsis
11.7839°
True anomaly
16.51801°
Mean anomaly
15.7569°
Eccentric anomaly
16.13525°
Mean motion
3.08039 °/min
Orbital period
116.87 mins
BSTAR
0.0043482
Loading maneuver chart data...
Computing Atmospheric mass density...
Loading historical data...
Loading historical data...
Loading historical data...
Loading historical data...
Loading historical data...
Loading historical data...
Loading historical data...

Documentation

Showing up to 5 results
|